Year,Month,Day,Hour,Minute,Value (Times are PST for temperature in C)
2013,04,26,00,00,8.80
2013,04,26,00,01,8.80
2013,04,26,00,02,8.80
2013,04,26,00,03,8.80
2013,04,26,00,04,8.70
2013,04,26,00,05,8.70
2013,04,26,00,06,8.70
2013,04,26,00,07,8.70
2013,04,26,00,08,8.60
2013,04,26,00,09,8.60
2013,04,26,00,10,8.60
2013,04,26,00,11,8.60
2013,04,26,00,12,8.50
2013,04,26,00,13,8.50
2013,04,26,00,14,8.50
2013,04,26,00,15,8.50
2013,04,26,00,16,8.50
2013,04,26,00,17,8.50
2013,04,26,00,18,8.40
2013,04,26,00,19,8.40
2013,04,26,00,20,8.50
2013,04,26,00,21,8.60
2013,04,26,00,22,8.70
2013,04,26,00,23,8.80
2013,04,26,00,24,8.80
2013,04,26,00,25,8.90
2013,04,26,00,26,9.00
2013,04,26,00,27,9.10
2013,04,26,00,28,9.20
2013,04,26,00,29,9.30
2013,04,26,00,30,9.30
2013,04,26,00,31,9.40
2013,04,26,00,32,9.50
2013,04,26,00,33,9.50
2013,04,26,00,34,9.60
2013,04,26,00,35,9.60
2013,04,26,00,36,9.70
2013,04,26,00,37,9.70
2013,04,26,00,38,9.70
2013,04,26,00,39,9.70
2013,04,26,00,40,9.70
2013,04,26,00,41,9.70
2013,04,26,00,42,9.70
2013,04,26,00,43,9.70
2013,04,26,00,44,9.70
2013,04,26,00,45,9.70
2013,04,26,00,46,9.60
2013,04,26,00,47,9.60
2013,04,26,00,48,9.60
2013,04,26,00,49,9.50
2013,04,26,00,50,9.50
2013,04,26,00,51,9.50
2013,04,26,00,52,9.40
2013,04,26,00,53,9.40
2013,04,26,00,54,9.40
2013,04,26,00,55,9.30
2013,04,26,00,56,9.30
2013,04,26,00,57,9.30
2013,04,26,00,58,9.20
2013,04,26,00,59,9.20
2013,04,26,01,00,9.20
2013,04,26,01,01,9.10
2013,04,26,01,02,9.10
2013,04,26,01,03,9.00
2013,04,26,01,04,9.00
2013,04,26,01,05,8.90
2013,04,26,01,06,8.90
2013,04,26,01,07,8.90
2013,04,26,01,08,8.80
2013,04,26,01,09,8.80
2013,04,26,01,10,8.80
2013,04,26,01,11,8.70
2013,04,26,01,12,8.70
2013,04,26,01,13,8.70
2013,04,26,01,14,8.70
2013,04,26,01,15,8.70
2013,04,26,01,16,8.70
2013,04,26,01,17,8.70
2013,04,26,01,18,8.70
2013,04,26,01,19,8.60
2013,04,26,01,20,8.60
2013,04,26,01,21,8.60
2013,04,26,01,22,8.60
2013,04,26,01,23,8.60
2013,04,26,01,24,8.60
2013,04,26,01,25,8.60
2013,04,26,01,26,8.50
2013,04,26,01,27,8.50
2013,04,26,01,28,8.50
2013,04,26,01,29,8.50
2013,04,26,01,30,8.40
2013,04,26,01,31,8.40
2013,04,26,01,32,8.40
2013,04,26,01,33,8.30
2013,04,26,01,34,8.30
2013,04,26,01,35,8.30
2013,04,26,01,36,8.30
2013,04,26,01,37,8.30
2013,04,26,01,38,8.20
2013,04,26,01,39,8.20
2013,04,26,01,40,8.20
2013,04,26,01,41,8.10
2013,04,26,01,42,8.10
2013,04,26,01,43,8.10
2013,04,26,01,44,8.00
2013,04,26,01,45,8.00
2013,04,26,01,46,7.90
2013,04,26,01,47,7.90
2013,04,26,01,48,7.90
2013,04,26,01,49,7.90
2013,04,26,01,50,7.90
2013,04,26,01,51,7.80
2013,04,26,01,52,7.80
2013,04,26,01,53,7.80
2013,04,26,01,54,7.80
2013,04,26,01,55,7.80
2013,04,26,01,56,7.80
2013,04,26,01,57,7.80
2013,04,26,01,58,7.80
2013,04,26,01,59,7.70
2013,04,26,02,00,7.70
2013,04,26,02,01,7.70
2013,04,26,02,02,7.70
2013,04,26,02,03,7.70
2013,04,26,02,04,7.60
2013,04,26,02,05,7.60
2013,04,26,02,06,7.60
2013,04,26,02,07,7.60
2013,04,26,02,08,7.60
2013,04,26,02,09,7.50
2013,04,26,02,10,7.50
2013,04,26,02,11,7.50
2013,04,26,02,12,7.50
2013,04,26,02,13,7.50
2013,04,26,02,14,7.50
2013,04,26,02,15,7.50
2013,04,26,02,16,7.50
2013,04,26,02,17,7.50
2013,04,26,02,18,7.40
2013,04,26,02,19,7.40
2013,04,26,02,20,7.40
2013,04,26,02,21,7.40
2013,04,26,02,22,7.40
2013,04,26,02,23,7.30
2013,04,26,02,24,7.30
2013,04,26,02,25,7.30
2013,04,26,02,26,7.30
2013,04,26,02,27,7.30
2013,04,26,02,28,7.20
2013,04,26,02,29,7.20
2013,04,26,02,30,7.20
2013,04,26,02,31,7.20
2013,04,26,02,32,7.20
2013,04,26,02,33,7.10
2013,04,26,02,34,7.10
2013,04,26,02,35,7.10
2013,04,26,02,36,7.10
2013,04,26,02,37,7.00
2013,04,26,02,38,7.00
2013,04,26,02,39,7.00
2013,04,26,02,40,7.00
2013,04,26,02,41,6.90
2013,04,26,02,42,6.90
2013,04,26,02,43,6.90
2013,04,26,02,44,6.90
2013,04,26,02,45,6.90
2013,04,26,02,46,6.90
2013,04,26,02,47,6.90
2013,04,26,02,48,6.90
2013,04,26,02,49,6.90
2013,04,26,02,50,6.90
2013,04,26,02,51,6.80
2013,04,26,02,52,6.80
2013,04,26,02,53,6.80
2013,04,26,02,54,6.80
2013,04,26,02,55,6.80
2013,04,26,02,56,6.80
2013,04,26,02,57,6.70
2013,04,26,02,58,6.60
2013,04,26,02,59,6.60
2013,04,26,03,00,6.50
2013,04,26,03,01,6.50
2013,04,26,03,02,6.40
2013,04,26,03,03,6.30
2013,04,26,03,04,6.30
2013,04,26,03,05,6.20
2013,04,26,03,06,6.20
2013,04,26,03,07,6.20
2013,04,26,03,08,6.10
2013,04,26,03,09,6.10
2013,04,26,03,10,6.10
2013,04,26,03,11,6.10
2013,04,26,03,12,6.10
2013,04,26,03,13,6.10
2013,04,26,03,14,6.10
2013,04,26,03,15,6.10
2013,04,26,03,16,6.10
2013,04,26,03,17,6.10
2013,04,26,03,18,6.00
2013,04,26,03,19,6.00
2013,04,26,03,20,6.00
2013,04,26,03,21,6.00
2013,04,26,03,22,6.00
2013,04,26,03,23,6.00
2013,04,26,03,24,5.90
2013,04,26,03,25,5.90
2013,04,26,03,26,5.90
2013,04,26,03,27,5.80
2013,04,26,03,28,5.80
2013,04,26,03,29,5.80
2013,04,26,03,30,5.80
2013,04,26,03,31,5.80
2013,04,26,03,32,5.80
2013,04,26,03,33,5.70
2013,04,26,03,34,5.70
2013,04,26,03,35,5.70
2013,04,26,03,36,5.70
2013,04,26,03,37,5.70
2013,04,26,03,38,5.60
2013,04,26,03,39,5.60
2013,04,26,03,40,5.60
2013,04,26,03,41,5.60
2013,04,26,03,42,5.60
2013,04,26,03,43,5.60
2013,04,26,03,44,5.60
2013,04,26,03,45,5.50
2013,04,26,03,46,5.50
2013,04,26,03,47,5.50
2013,04,26,03,48,5.50
2013,04,26,03,49,5.50
2013,04,26,03,50,5.40
2013,04,26,03,51,5.40
2013,04,26,03,52,5.40
2013,04,26,03,53,5.40
2013,04,26,03,54,5.30
2013,04,26,03,55,5.30
2013,04,26,03,56,5.30
2013,04,26,03,57,5.30
2013,04,26,03,58,5.30
2013,04,26,03,59,5.30
2013,04,26,04,00,5.30
2013,04,26,04,01,5.30
2013,04,26,04,02,5.30
2013,04,26,04,03,5.30
2013,04,26,04,04,5.20
2013,04,26,04,05,5.20
2013,04,26,04,06,5.20
2013,04,26,04,07,5.20
2013,04,26,04,08,5.20
2013,04,26,04,09,5.30
2013,04,26,04,10,5.30
2013,04,26,04,11,5.40
2013,04,26,04,12,5.40
2013,04,26,04,13,5.40
2013,04,26,04,14,5.40
2013,04,26,04,15,5.30
2013,04,26,04,16,5.30
2013,04,26,04,17,5.30
2013,04,26,04,18,5.30
2013,04,26,04,19,5.30
2013,04,26,04,20,5.30
2013,04,26,04,21,5.20
2013,04,26,04,22,5.20
2013,04,26,04,23,5.10
2013,04,26,04,24,5.10
2013,04,26,04,25,5.10
2013,04,26,04,26,5.00
2013,04,26,04,27,5.00
2013,04,26,04,28,5.00
2013,04,26,04,29,5.00
2013,04,26,04,30,4.90
2013,04,26,04,31,4.90
2013,04,26,04,32,4.90
2013,04,26,04,33,4.90
2013,04,26,04,34,4.90
2013,04,26,04,35,4.80
2013,04,26,04,36,4.80
2013,04,26,04,37,4.80
2013,04,26,04,38,4.80
2013,04,26,04,39,4.80
2013,04,26,04,40,4.70
2013,04,26,04,41,4.70
2013,04,26,04,42,4.70
2013,04,26,04,43,4.70
2013,04,26,04,44,4.70
2013,04,26,04,45,4.60
2013,04,26,04,46,4.60
2013,04,26,04,47,4.60
2013,04,26,04,48,4.50
2013,04,26,04,49,4.50
2013,04,26,04,50,4.50
2013,04,26,04,51,4.40
2013,04,26,04,52,4.40
2013,04,26,04,53,4.40
2013,04,26,04,54,4.40
2013,04,26,04,55,4.40
2013,04,26,04,56,4.30
2013,04,26,04,57,4.30
2013,04,26,04,58,4.30
2013,04,26,04,59,4.30
2013,04,26,05,00,4.30
2013,04,26,05,01,4.30
2013,04,26,05,02,4.30
2013,04,26,05,03,4.20
2013,04,26,05,04,4.20
2013,04,26,05,05,4.20
2013,04,26,05,06,4.20
2013,04,26,05,07,4.20
2013,04,26,05,08,4.20
2013,04,26,05,09,4.20
2013,04,26,05,10,4.10
2013,04,26,05,11,4.10
2013,04,26,05,12,4.10
2013,04,26,05,13,4.10
2013,04,26,05,14,4.10
2013,04,26,05,15,4.10
2013,04,26,05,16,4.10
2013,04,26,05,17,4.10
2013,04,26,05,18,4.10
2013,04,26,05,19,4.10
2013,04,26,05,20,4.00
2013,04,26,05,21,4.00
2013,04,26,05,22,4.00
2013,04,26,05,23,4.00
2013,04,26,05,24,4.00
2013,04,26,05,25,4.00
2013,04,26,05,26,4.00
2013,04,26,05,27,4.00
2013,04,26,05,28,4.00
2013,04,26,05,29,4.00
2013,04,26,05,30,3.90
2013,04,26,05,31,4.00
2013,04,26,05,32,4.00
2013,04,26,05,33,4.00
2013,04,26,05,34,4.00
2013,04,26,05,35,4.00
2013,04,26,05,36,4.00
2013,04,26,05,37,3.90
2013,04,26,05,38,3.90
2013,04,26,05,39,3.90
2013,04,26,05,40,3.90
2013,04,26,05,41,3.80
2013,04,26,05,42,3.80
2013,04,26,05,43,3.80
2013,04,26,05,44,3.80
2013,04,26,05,45,3.80
2013,04,26,05,46,3.80
2013,04,26,05,47,3.80
2013,04,26,05,48,3.80
2013,04,26,05,49,3.80
2013,04,26,05,50,3.80
2013,04,26,05,51,3.70
2013,04,26,05,52,3.70
2013,04,26,05,53,3.70
2013,04,26,05,54,3.70
2013,04,26,05,55,3.70
2013,04,26,05,56,3.70
2013,04,26,05,57,3.70
2013,04,26,05,58,3.60
2013,04,26,05,59,3.60
2013,04,26,06,00,3.60
2013,04,26,06,01,3.60
2013,04,26,06,02,3.60
2013,04,26,06,03,3.60
2013,04,26,06,04,3.60
2013,04,26,06,05,3.60
2013,04,26,06,06,3.60
2013,04,26,06,07,3.60
2013,04,26,06,08,3.60
2013,04,26,06,09,3.60
2013,04,26,06,10,3.60
2013,04,26,06,11,3.60
2013,04,26,06,12,3.60
2013,04,26,06,13,3.60
2013,04,26,06,14,3.60
2013,04,26,06,15,3.60
2013,04,26,06,16,3.60
2013,04,26,06,17,3.60
2013,04,26,06,18,3.60
2013,04,26,06,19,3.50
2013,04,26,06,20,3.50
2013,04,26,06,21,3.50
2013,04,26,06,22,3.50
2013,04,26,06,23,3.50
2013,04,26,06,24,3.50
2013,04,26,06,25,3.50
2013,04,26,06,26,3.50
2013,04,26,06,27,3.50
2013,04,26,06,28,3.50
2013,04,26,06,29,3.50
2013,04,26,06,30,3.50
2013,04,26,06,31,3.60
2013,04,26,06,32,3.60
2013,04,26,06,33,3.60
2013,04,26,06,34,3.60
2013,04,26,06,35,3.60
2013,04,26,06,36,3.60
2013,04,26,06,37,3.60
2013,04,26,06,38,3.60
2013,04,26,06,39,3.60
2013,04,26,06,40,3.60
2013,04,26,06,41,3.60
2013,04,26,06,42,3.60
2013,04,26,06,43,3.60
2013,04,26,06,44,3.60
2013,04,26,06,45,3.60
2013,04,26,06,46,3.60
2013,04,26,06,47,3.60
2013,04,26,06,48,3.60
2013,04,26,06,49,3.60
2013,04,26,06,50,3.60
2013,04,26,06,51,3.60
2013,04,26,06,52,3.60
2013,04,26,06,53,3.60
2013,04,26,06,54,3.60
2013,04,26,06,55,3.60
2013,04,26,06,56,3.60
2013,04,26,06,57,3.70
2013,04,26,06,58,3.70
2013,04,26,06,59,3.70
2013,04,26,07,00,3.70
2013,04,26,07,01,3.80
2013,04,26,07,02,3.80
2013,04,26,07,03,3.80
2013,04,26,07,04,3.80
2013,04,26,07,05,3.80
2013,04,26,07,06,3.90
2013,04,26,07,07,3.90
2013,04,26,07,08,3.90
2013,04,26,07,09,3.90
2013,04,26,07,10,3.90
2013,04,26,07,11,4.00
2013,04,26,07,12,4.10
2013,04,26,07,13,4.10
2013,04,26,07,14,4.20
2013,04,26,07,15,4.20
2013,04,26,07,16,4.30
2013,04,26,07,17,4.40
2013,04,26,07,18,4.50
2013,04,26,07,19,4.60
2013,04,26,07,20,4.70
2013,04,26,07,21,4.90
2013,04,26,07,22,5.00
2013,04,26,07,23,5.10
2013,04,26,07,24,5.30
2013,04,26,07,25,5.40
2013,04,26,07,26,5.50
2013,04,26,07,27,5.60
2013,04,26,07,28,5.80
2013,04,26,07,29,5.90
2013,04,26,07,30,6.00
2013,04,26,07,31,6.10
2013,04,26,07,32,6.20
2013,04,26,07,33,6.30
2013,04,26,07,34,6.40
2013,04,26,07,35,6.50
2013,04,26,07,36,6.70
2013,04,26,07,37,6.80
2013,04,26,07,38,6.90
2013,04,26,07,39,7.00
2013,04,26,07,40,7.10
2013,04,26,07,41,7.20
2013,04,26,07,42,7.20
2013,04,26,07,43,7.20
2013,04,26,07,44,7.30
2013,04,26,07,45,7.30
2013,04,26,07,46,7.30
2013,04,26,07,47,7.40
2013,04,26,07,48,7.40
2013,04,26,07,49,7.50
2013,04,26,07,50,7.50
2013,04,26,07,51,7.60
2013,04,26,07,52,7.60
2013,04,26,07,53,7.60
2013,04,26,07,54,7.70
2013,04,26,07,55,7.80
2013,04,26,07,56,7.80
2013,04,26,07,57,7.80
2013,04,26,07,58,7.90
2013,04,26,07,59,8.00
2013,04,26,08,00,8.00
2013,04,26,08,01,8.10
2013,04,26,08,02,8.20
2013,04,26,08,03,8.30
2013,04,26,08,04,8.30
2013,04,26,08,05,8.40
2013,04,26,08,06,8.50
2013,04,26,08,07,8.60
2013,04,26,08,08,8.60
2013,04,26,08,09,8.70
2013,04,26,08,10,8.80
2013,04,26,08,11,8.90
2013,04,26,08,12,8.90
2013,04,26,08,13,9.00
2013,04,26,08,14,9.10
2013,04,26,08,15,9.10
2013,04,26,08,16,9.20
2013,04,26,08,17,9.30
2013,04,26,08,18,9.30
2013,04,26,08,19,9.40
2013,04,26,08,20,9.50
2013,04,26,08,21,9.50
2013,04,26,08,22,9.50
2013,04,26,08,23,9.50
2013,04,26,08,24,9.50
2013,04,26,08,25,9.50
2013,04,26,08,26,9.60
2013,04,26,08,27,9.60
2013,04,26,08,28,9.60
2013,04,26,08,29,9.60
2013,04,26,08,30,9.60
2013,04,26,08,31,9.60
2013,04,26,08,32,9.70
2013,04,26,08,33,9.70
2013,04,26,08,34,9.70
2013,04,26,08,35,9.80
2013,04,26,08,36,9.70
2013,04,26,08,37,9.70
2013,04,26,08,38,9.70
2013,04,26,08,39,9.60
2013,04,26,08,40,9.60
2013,04,26,08,41,9.50
2013,04,26,08,42,9.50
2013,04,26,08,43,9.50
2013,04,26,08,44,9.50
2013,04,26,08,45,9.50
2013,04,26,08,46,9.50
2013,04,26,08,47,9.40
2013,04,26,08,48,9.40
2013,04,26,08,49,9.40
2013,04,26,08,50,9.50
2013,04,26,08,51,9.40
2013,04,26,08,52,9.40
2013,04,26,08,53,9.50
2013,04,26,08,54,9.50
2013,04,26,08,55,9.50
2013,04,26,08,56,9.60
2013,04,26,08,57,9.60
2013,04,26,08,58,9.60
2013,04,26,08,59,9.60
2013,04,26,09,00,9.50
2013,04,26,09,01,9.50
2013,04,26,09,02,9.50
2013,04,26,09,03,9.60
2013,04,26,09,04,9.70
2013,04,26,09,05,9.60
2013,04,26,09,06,9.60
2013,04,26,09,07,9.60
2013,04,26,09,08,9.50
2013,04,26,09,09,9.50
2013,04,26,09,10,9.60
2013,04,26,09,11,9.60
2013,04,26,09,12,9.70
2013,04,26,09,13,9.70
2013,04,26,09,14,9.80
2013,04,26,09,15,9.90
2013,04,26,09,16,10.00
2013,04,26,09,17,10.00
2013,04,26,09,18,10.00
2013,04,26,09,19,10.00
2013,04,26,09,20,10.00
2013,04,26,09,21,10.00
2013,04,26,09,22,9.90
2013,04,26,09,23,10.00
2013,04,26,09,24,10.00
2013,04,26,09,25,10.00
2013,04,26,09,26,10.00
2013,04,26,09,27,10.20
2013,04,26,09,28,10.30
2013,04,26,09,29,10.30
2013,04,26,09,30,10.40
2013,04,26,09,31,10.40
2013,04,26,09,32,10.40
2013,04,26,09,33,10.40
2013,04,26,09,34,10.40
2013,04,26,09,35,10.40
2013,04,26,09,36,10.30
2013,04,26,09,37,10.30
2013,04,26,09,38,10.20
2013,04,26,09,39,10.20
2013,04,26,09,40,10.20
2013,04,26,09,41,10.20
2013,04,26,09,42,10.20
2013,04,26,09,43,10.20
2013,04,26,09,44,10.30
2013,04,26,09,45,10.30
2013,04,26,09,46,10.30
2013,04,26,09,47,10.30
2013,04,26,09,48,10.30
2013,04,26,09,49,10.40
2013,04,26,09,50,10.40
2013,04,26,09,51,10.40
2013,04,26,09,52,10.40
2013,04,26,09,53,10.40
2013,04,26,09,54,10.40
2013,04,26,09,55,10.40
2013,04,26,09,56,10.40
2013,04,26,09,57,10.40
2013,04,26,09,58,10.40
2013,04,26,09,59,10.40
2013,04,26,10,00,10.40
2013,04,26,10,01,10.40
2013,04,26,10,02,10.40
2013,04,26,10,03,10.30
2013,04,26,10,04,10.30
2013,04,26,10,05,10.30
2013,04,26,10,06,10.30
2013,04,26,10,07,10.30
2013,04,26,10,08,10.30
2013,04,26,10,09,10.40
2013,04,26,10,10,10.40
2013,04,26,10,11,10.40
2013,04,26,10,12,10.40
2013,04,26,10,13,10.40
2013,04,26,10,14,10.40
2013,04,26,10,15,10.40
2013,04,26,10,16,10.30
2013,04,26,10,17,10.30
2013,04,26,10,18,10.20
2013,04,26,10,19,10.20
2013,04,26,10,20,10.20
2013,04,26,10,21,10.30
2013,04,26,10,22,10.40
2013,04,26,10,23,10.40
2013,04,26,10,24,10.40
2013,04,26,10,25,10.30
2013,04,26,10,26,10.30
2013,04,26,10,27,10.30
2013,04,26,10,28,10.30
2013,04,26,10,29,10.20
2013,04,26,10,30,10.20
2013,04,26,10,31,10.20
2013,04,26,10,32,10.20
2013,04,26,10,33,10.30
2013,04,26,10,34,10.30
2013,04,26,10,35,10.20
2013,04,26,10,36,10.20
2013,04,26,10,37,10.20
2013,04,26,10,38,10.30
2013,04,26,10,39,10.40
2013,04,26,10,40,10.50
2013,04,26,10,41,10.50
2013,04,26,10,42,10.60
2013,04,26,10,43,10.60
2013,04,26,10,44,10.60
2013,04,26,10,45,10.60
2013,04,26,10,46,10.70
2013,04,26,10,47,10.60
2013,04,26,10,48,10.60
2013,04,26,10,49,10.50
2013,04,26,10,50,10.40
2013,04,26,10,51,10.30
2013,04,26,10,52,10.20
2013,04,26,10,53,10.10
2013,04,26,10,54,10.00
2013,04,26,10,55,10.00
2013,04,26,10,56,10.00
2013,04,26,10,57,9.90
2013,04,26,10,58,9.90
2013,04,26,10,59,10.00
2013,04,26,11,00,10.00
2013,04,26,11,01,9.90
2013,04,26,11,02,9.80
2013,04,26,11,03,9.80
2013,04,26,11,04,9.80
2013,04,26,11,05,9.80
2013,04,26,11,06,9.80
2013,04,26,11,07,9.80
2013,04,26,11,08,9.70
2013,04,26,11,09,9.60
2013,04,26,11,10,9.60
2013,04,26,11,11,9.60
2013,04,26,11,12,9.60
2013,04,26,11,13,9.60
2013,04,26,11,14,9.60
2013,04,26,11,15,9.60
2013,04,26,11,16,9.70
2013,04,26,11,17,9.70
2013,04,26,11,18,9.80
2013,04,26,11,19,9.80
2013,04,26,11,20,9.80
2013,04,26,11,21,9.80
2013,04,26,11,22,9.80
2013,04,26,11,23,9.80
2013,04,26,11,24,9.80
2013,04,26,11,25,9.90
2013,04,26,11,26,10.00
2013,04,26,11,27,10.00
2013,04,26,11,28,9.90
2013,04,26,11,29,9.90
2013,04,26,11,30,9.90
2013,04,26,11,31,9.90
2013,04,26,11,32,10.00
2013,04,26,11,33,10.10
2013,04,26,11,34,10.10
2013,04,26,11,35,10.10
2013,04,26,11,36,10.20
2013,04,26,11,37,10.20
2013,04,26,11,38,10.10
2013,04,26,11,39,10.10
2013,04,26,11,40,10.00
2013,04,26,11,41,10.00
2013,04,26,11,42,10.00
2013,04,26,11,43,10.00
2013,04,26,11,44,10.00
2013,04,26,11,45,10.00
2013,04,26,11,46,9.90
2013,04,26,11,47,9.90
2013,04,26,11,48,9.90
2013,04,26,11,49,9.90
2013,04,26,11,50,10.00
2013,04,26,11,51,10.00
2013,04,26,11,52,10.00
2013,04,26,11,53,10.10
2013,04,26,11,54,10.10
2013,04,26,11,55,10.10
2013,04,26,11,56,10.00
2013,04,26,11,57,10.00
2013,04,26,11,58,10.00
2013,04,26,11,59,10.00
2013,04,26,12,00,10.00
2013,04,26,12,01,10.00
2013,04,26,12,02,10.00
2013,04,26,12,03,10.10
2013,04,26,12,04,10.20
2013,04,26,12,05,10.30
2013,04,26,12,06,10.30
2013,04,26,12,07,10.30
2013,04,26,12,08,10.30
2013,04,26,12,09,10.40
2013,04,26,12,10,10.40
2013,04,26,12,11,10.40
2013,04,26,12,12,10.40
2013,04,26,12,13,10.50
2013,04,26,12,14,10.60
2013,04,26,12,15,10.60
2013,04,26,12,16,10.70
2013,04,26,12,17,10.70
2013,04,26,12,18,10.80
2013,04,26,12,19,10.70
2013,04,26,12,20,10.70
2013,04,26,12,21,10.60
2013,04,26,12,22,10.60
2013,04,26,12,23,10.60
2013,04,26,12,24,10.60
2013,04,26,12,25,10.60
2013,04,26,12,26,10.60
2013,04,26,12,27,10.60
2013,04,26,12,28,10.60
2013,04,26,12,29,10.60
2013,04,26,12,30,10.70
2013,04,26,12,31,10.70
2013,04,26,12,32,10.70
2013,04,26,12,33,10.70
2013,04,26,12,34,10.80
2013,04,26,12,35,10.80
2013,04,26,12,36,10.80
2013,04,26,12,37,10.90
2013,04,26,12,38,10.90
2013,04,26,12,39,10.90
2013,04,26,12,40,10.90
2013,04,26,12,41,10.80
2013,04,26,12,42,10.80
2013,04,26,12,43,10.80
2013,04,26,12,44,10.80
2013,04,26,12,45,10.80
2013,04,26,12,46,10.80
2013,04,26,12,47,10.70
2013,04,26,12,48,10.70
2013,04,26,12,49,10.70
2013,04,26,12,50,10.70
2013,04,26,12,51,10.70
2013,04,26,12,52,10.70
2013,04,26,12,53,10.60
2013,04,26,12,54,10.60
2013,04,26,12,55,10.60
2013,04,26,12,56,10.70
2013,04,26,12,57,10.80
2013,04,26,12,58,10.80
2013,04,26,12,59,10.70
2013,04,26,13,00,10.70
2013,04,26,13,01,10.70
2013,04,26,13,02,10.60
2013,04,26,13,03,10.50
2013,04,26,13,04,10.40
2013,04,26,13,05,10.50
2013,04,26,13,06,10.50
2013,04,26,13,07,10.60
2013,04,26,13,08,10.70
2013,04,26,13,09,10.80
2013,04,26,13,10,10.90
2013,04,26,13,11,11.00
2013,04,26,13,12,11.00
2013,04,26,13,13,10.90
2013,04,26,13,14,11.00
2013,04,26,13,15,11.00
2013,04,26,13,16,10.90
2013,04,26,13,17,11.00
2013,04,26,13,18,10.90
2013,04,26,13,19,10.90
2013,04,26,13,20,10.90
2013,04,26,13,21,10.90
2013,04,26,13,22,10.90
2013,04,26,13,23,10.80
2013,04,26,13,24,10.80
2013,04,26,13,25,10.70
2013,04,26,13,26,10.70
2013,04,26,13,27,10.70
2013,04,26,13,28,10.80
2013,04,26,13,29,10.80
2013,04,26,13,30,10.80
2013,04,26,13,31,10.70
2013,04,26,13,32,10.70
2013,04,26,13,33,10.80
2013,04,26,13,34,10.80
2013,04,26,13,35,10.70
2013,04,26,13,36,10.70
2013,04,26,13,37,10.70
2013,04,26,13,38,10.70
2013,04,26,13,39,10.70
2013,04,26,13,40,10.70
2013,04,26,13,41,10.80
2013,04,26,13,42,10.90
2013,04,26,13,43,10.90
2013,04,26,13,44,10.90
2013,04,26,13,45,10.90
2013,04,26,13,46,11.00
2013,04,26,13,47,11.10
2013,04,26,13,48,11.10
2013,04,26,13,49,11.20
2013,04,26,13,50,11.30
2013,04,26,13,51,11.30
2013,04,26,13,52,11.40
2013,04,26,13,53,11.40
2013,04,26,13,54,11.50
2013,04,26,13,55,11.50
2013,04,26,13,56,11.50
2013,04,26,13,57,11.40
2013,04,26,13,58,11.40
2013,04,26,13,59,11.40
2013,04,26,14,00,11.40
2013,04,26,14,01,11.30
2013,04,26,14,02,11.20
2013,04,26,14,03,11.20
2013,04,26,14,04,11.30
2013,04,26,14,05,11.40
2013,04,26,14,06,11.50
2013,04,26,14,07,11.60
2013,04,26,14,08,11.60
2013,04,26,14,09,11.70
2013,04,26,14,10,11.70
2013,04,26,14,11,11.70
2013,04,26,14,12,11.70
2013,04,26,14,13,11.60
2013,04,26,14,14,11.60
2013,04,26,14,15,11.60
2013,04,26,14,16,11.60
2013,04,26,14,17,11.70
2013,04,26,14,18,11.70
2013,04,26,14,19,11.70
2013,04,26,14,20,11.70
2013,04,26,14,21,11.60
2013,04,26,14,22,11.60
2013,04,26,14,23,11.50
2013,04,26,14,24,11.40
2013,04,26,14,25,11.40
2013,04,26,14,26,11.40
2013,04,26,14,27,11.40
2013,04,26,14,28,11.40
2013,04,26,14,29,11.50
2013,04,26,14,30,11.60
2013,04,26,14,31,11.70
2013,04,26,14,32,11.70
2013,04,26,14,33,11.70
2013,04,26,14,34,11.70
2013,04,26,14,35,11.70
2013,04,26,14,36,11.60
2013,04,26,14,37,11.60
2013,04,26,14,38,11.60
2013,04,26,14,39,11.70
2013,04,26,14,40,11.70
2013,04,26,14,41,11.80
2013,04,26,14,42,11.80
2013,04,26,14,43,11.80
2013,04,26,14,44,11.80
2013,04,26,14,45,11.90
2013,04,26,14,46,11.90
2013,04,26,14,47,11.90
2013,04,26,14,48,12.00
2013,04,26,14,49,12.10
2013,04,26,14,50,12.10
2013,04,26,14,51,12.00
2013,04,26,14,52,11.90
2013,04,26,14,53,11.90
2013,04,26,14,54,11.90
2013,04,26,14,55,12.00
2013,04,26,14,56,12.00
2013,04,26,14,57,11.90
2013,04,26,14,58,12.00
2013,04,26,14,59,12.10
2013,04,26,15,00,12.20
2013,04,26,15,01,12.20
2013,04,26,15,02,12.20
2013,04,26,15,03,12.20
2013,04,26,15,04,12.10
2013,04,26,15,05,12.10
2013,04,26,15,06,12.00
2013,04,26,15,07,12.10
2013,04,26,15,08,12.20
2013,04,26,15,09,12.20
2013,04,26,15,10,12.30
2013,04,26,15,11,12.40
2013,04,26,15,12,12.50
2013,04,26,15,13,12.60
2013,04,26,15,14,12.80
2013,04,26,15,15,12.90
2013,04,26,15,16,13.10
2013,04,26,15,17,13.20
2013,04,26,15,18,13.20
2013,04,26,15,19,13.20
2013,04,26,15,20,13.20
2013,04,26,15,21,13.30
2013,04,26,15,22,13.40
2013,04,26,15,23,13.40
2013,04,26,15,24,13.40
2013,04,26,15,25,13.40
2013,04,26,15,26,13.40
2013,04,26,15,27,13.30
2013,04,26,15,28,13.30
2013,04,26,15,29,13.10
2013,04,26,15,30,13.00
2013,04,26,15,31,13.00
2013,04,26,15,32,12.80
2013,04,26,15,33,12.80
2013,04,26,15,34,12.80
2013,04,26,15,35,12.80
2013,04,26,15,36,12.80
2013,04,26,15,37,12.90
2013,04,26,15,38,12.90
2013,04,26,15,39,12.90
2013,04,26,15,40,12.80
2013,04,26,15,41,12.70
2013,04,26,15,42,12.60
2013,04,26,15,43,12.60
2013,04,26,15,44,12.50
2013,04,26,15,45,12.50
2013,04,26,15,46,12.40
2013,04,26,15,47,12.40
2013,04,26,15,48,12.40
2013,04,26,15,49,12.50
2013,04,26,15,50,12.60
2013,04,26,15,51,12.60
2013,04,26,15,52,12.70
2013,04,26,15,53,12.70
2013,04,26,15,54,12.80
2013,04,26,15,55,12.80
2013,04,26,15,56,12.80
2013,04,26,15,57,12.80
2013,04,26,15,58,12.90
2013,04,26,15,59,12.90
2013,04,26,16,00,13.00
2013,04,26,16,01,13.20
2013,04,26,16,02,13.30
2013,04,26,16,03,13.50
2013,04,26,16,04,13.70
2013,04,26,16,05,13.80
2013,04,26,16,06,13.90
2013,04,26,16,07,14.00
2013,04,26,16,08,14.00
2013,04,26,16,09,14.10
2013,04,26,16,10,14.20
2013,04,26,16,11,14.30
2013,04,26,16,12,14.40
2013,04,26,16,13,14.50
2013,04,26,16,14,14.70
2013,04,26,16,15,14.80
2013,04,26,16,16,14.90
2013,04,26,16,17,14.80
2013,04,26,16,18,14.70
2013,04,26,16,19,14.60
2013,04,26,16,20,14.40
2013,04,26,16,21,14.50
2013,04,26,16,22,14.60
2013,04,26,16,23,14.70
2013,04,26,16,24,14.80
2013,04,26,16,25,14.80
2013,04,26,16,26,14.80
2013,04,26,16,27,14.80
2013,04,26,16,28,14.90
2013,04,26,16,29,14.90
2013,04,26,16,30,14.90
2013,04,26,16,31,14.80
2013,04,26,16,32,14.70
2013,04,26,16,33,14.50
2013,04,26,16,34,14.40
2013,04,26,16,35,14.40
2013,04,26,16,36,14.40
2013,04,26,16,37,14.30
2013,04,26,16,38,14.30
2013,04,26,16,39,14.20
2013,04,26,16,40,14.10
2013,04,26,16,41,14.00
2013,04,26,16,42,14.00
2013,04,26,16,43,14.00
2013,04,26,16,44,14.10
2013,04,26,16,45,14.10
2013,04,26,16,46,14.10
2013,04,26,16,47,14.10
2013,04,26,16,48,14.10
2013,04,26,16,49,14.10
2013,04,26,16,50,14.10
2013,04,26,16,51,14.10
2013,04,26,16,52,14.10
2013,04,26,16,53,14.20
2013,04,26,16,54,14.30
2013,04,26,16,55,14.40
2013,04,26,16,56,14.40
2013,04,26,16,57,14.40
2013,04,26,16,58,14.40
2013,04,26,16,59,14.40
2013,04,26,17,00,14.50
2013,04,26,17,01,14.50
2013,04,26,17,02,14.40
2013,04,26,17,03,14.30
2013,04,26,17,04,14.20
2013,04,26,17,05,14.20
2013,04,26,17,06,14.20
2013,04,26,17,07,14.20
2013,04,26,17,08,14.20
2013,04,26,17,09,14.30
2013,04,26,17,10,14.30
2013,04,26,17,11,14.40
2013,04,26,17,12,14.50
2013,04,26,17,13,14.60
2013,04,26,17,14,14.60
2013,04,26,17,15,14.50
2013,04,26,17,16,14.60
2013,04,26,17,17,14.60
2013,04,26,17,18,14.60
2013,04,26,17,19,14.60
2013,04,26,17,20,14.60
2013,04,26,17,21,14.60
2013,04,26,17,22,14.60
2013,04,26,17,23,14.60
2013,04,26,17,24,14.60
2013,04,26,17,25,14.60
2013,04,26,17,26,14.60
2013,04,26,17,27,14.60
2013,04,26,17,28,14.60
2013,04,26,17,29,14.60
2013,04,26,17,30,14.70
2013,04,26,17,31,14.70
2013,04,26,17,32,14.80
2013,04,26,17,33,14.80
2013,04,26,17,34,14.80
2013,04,26,17,35,14.80
2013,04,26,17,36,14.70
2013,04,26,17,37,14.60
2013,04,26,17,38,14.60
2013,04,26,17,39,14.50
2013,04,26,17,40,14.40
2013,04,26,17,41,14.50
2013,04,26,17,42,14.50
2013,04,26,17,43,14.50
2013,04,26,17,44,14.60
2013,04,26,17,45,14.70